[[{"header":{"parameterUnit":"m.s-1","parameterCategory":1,"la1":30.2991,"la2":30.254,"lo1":-89.0895,"lo2":-89.0444,"dx":0.0017,"dy":0.0017,"nx":28,"ny":28,"refTime":"2022-12-24T09:00:00:Z","depth":0,"parameterNumber":2,"parameterNumberName":"U-component_of_WINDS"},"data":[0,0,0,0,0,0,0,0,0,0,0,0,0,0,0,0,0,0,0,0,0,0,0,0,0,0,0,0,0,0,0,0,0,0,0,0,0,0,0,0,0,0,0,0,0,0,0,0,0,0,0,0,0,0,0,0,0,0,2.2127,2.2127,0,2.2115,2.2115,2.2115,2.2085,2.2084,2.2084,2.2083,2.2069,2.207,2.207,0,0,0,0,0,0,0,0,0,0,0,0,0,2.2122,2.2122,2.2127,2.2127,2.2126,2.2115,2.2115,2.2115,2.2085,2.2084,2.2083,2.2083,2.2069,2.207,2.207,0,0,0,0,0,0,0,0,0,0,0,0,0,2.2119,2.2122,2.2127,2.211,2.2109,2.2115,2.2115,2.2115,2.2085,2.2084,2.2083,2.2082,2.2069,2.207,2.207,2.2091,0,0,2.2071,2.2071,0,0,0,0,0,0,0,0,2.2119,2.2119,2.2113,2.2111,2.2109,2.21,2.2108,2.2107,2.2085,2.2094,2.2083,2.2082,2.208,2.208,2.208,2.2091,2.209,2.2071,2.2071,2.2071,2.2072,0,0,0,0,0,0,0,2.2119,2.2119,2.2122,2.2113,2.2111,2.2103,2.2102,2.2108,2.2093,2.2093,2.2091,2.209,2.2079,2.2079,2.2079,2.209,2.2071,2.2071,2.2072,2.2072,2.2119,2.212,0,0,0,0,0,0,2.2122,2.212,2.2122,2.2122,2.2112,2.2104,2.2102,2.2104,2.2092,2.209,2.2091,2.2089,2.2079,2.2079,2.2079,2.2103,2.2071,2.2072,2.2072,2.2118,2.2119,2.212,0,0,0,0,0,0,2.2122,2.2122,2.2123,2.212,2.212,2.2105,2.2108,2.2105,2.2105,2.2091,2.2088,2.2094,2.2079,2.2078,2.2089,2.2102,2.2072,2.2072,2.2117,2.2118,2.212,2.2152,0,0,0,0,0,0,2.2122,2.2123,2.2131,2.2121,2.212,2.2133,2.2108,2.2105,2.2106,2.2103,2.2093,2.209,2.2078,2.2088,2.2089,2.2102,2.2073,2.2115,2.2117,2.2119,2.215,2.2155,2.2159,0,0,0,0,0,2.2122,2.2139,2.2131,2.2132,2.2129,2.2134,2.2134,2.2119,2.2107,2.2114,2.2106,2.209,2.2101,2.209,2.209,2.2104,2.2114,2.2117,2.2119,2.2148,2.2154,2.2159,0,0,0,0,0,0,2.215,2.2138,2.2128,2.2143,2.214,2.2129,2.2138,2.2126,2.2126,2.2123,2.2105,2.2103,2.2116,2.2111,2.2099,2.2124,2.2105,2.2108,2.2127,2.2132,2.2137,2.2137,2.2073,0,0,0,0,0,2.2159,2.2164,2.2152,2.2167,2.2166,2.2153,2.2154,2.2144,2.2139,2.2138,2.213,2.2126,2.2128,2.213,2.2132,2.2149,2.2147,2.2159,2.2164,2.2167,2.2169,2.2179,2.2184,2.2128,2.2128,2.2128,0,0,2.2175,2.2169,2.2173,2.2172,2.2169,2.2174,2.2152,2.2158,2.2162,2.2138,2.2148,2.2143,2.2137,2.2152,2.2158,2.2148,2.2185,2.217,2.2173,2.2173,2.2182,2.2187,2.2192,2.213,2.2129,2.2129,0,0,2.2208,2.2204,2.2216,2.2213,2.2208,2.22,2.2203,2.2194,2.219,2.22,2.2182,2.2187,2.2191,2.2188,2.2188,2.2222,2.2208,2.2223,2.2246,2.2256,2.226,2.2264,2.2276,2.228,2.2226,2.2226,2.2226,0,2.2229,2.2237,2.2223,2.2231,2.2232,2.2212,2.2224,2.2222,2.2218,2.2218,2.2208,2.2214,2.2209,2.2223,2.2231,2.2232,2.2234,2.2223,2.2261,2.2264,2.2268,2.2279,2.2283,2.2227,2.2227,2.2227,2.2227,0,2.2263,2.2269,2.2279,2.2277,2.2278,2.2288,2.2276,2.228,2.227,2.2263,2.2273,2.2267,2.2267,2.227,2.226,2.2283,2.2277,2.2264,2.2244,2.2275,2.2285,2.229,2.223,2.2229,2.2229,2.2228,0,0,2.2311,2.2303,2.2306,2.2305,2.23,2.2304,2.2314,2.2315,2.2319,2.2317,2.2324,2.233,2.2318,2.2317,2.2307,2.2316,2.2344,2.2302,2.2301,2.2309,2.2369,2.2378,2.2383,2.2335,2.2336,2.2336,2.2369,0,2.2342,2.2358,2.2347,2.2364,2.237,2.2353,2.2361,2.2359,2.2353,2.2357,2.235,2.2354,2.2339,2.2338,2.2346,2.2339,2.2355,2.2336,2.2341,2.2342,2.2342,2.2388,2.2398,2.2429,2.2373,2.2374,2.2374,0,2.2379,2.238,2.2399,2.2394,2.2395,2.2403,2.2404,2.2408,2.2406,2.2401,2.2401,2.2389,2.2398,2.2381,2.2393,2.2381,2.2382,2.2379,2.238,2.2379,2.2359,2.2388,2.2438,2.2442,2.238,2.238,2.2379,0,2.2412,2.2418,2.243,2.243,2.2424,2.243,2.2428,2.2425,2.2427,2.2428,2.2429,2.2431,2.2431,2.2433,2.2422,2.241,2.2436,2.2417,2.2432,2.2432,2.2437,2.2436,2.2487,2.244,2.244,2.244,2.244,0,2.2446,2.2458,2.2445,2.2453,2.2466,2.2454,2.2467,2.2463,2.2461,2.2467,2.2452,2.2459,2.2444,2.2449,2.2441,2.2452,2.2453,2.2449,2.2446,2.245,2.245,2.245,2.2447,2.2441,2.2441,2.244,2.244,0,2.2484,2.2476,2.2488,2.2483,2.2482,2.2492,2.2486,2.2493,2.2487,2.2496,2.2497,2.2487,2.2492,2.2482,2.2486,2.248,2.2497,2.2491,2.2498,2.2496,2.2511,2.2509,2.2562,2.2568,2.2518,2.2518,2.2519,0,2.2506,2.2515,2.2511,2.2515,2.2514,2.252,2.2522,2.2511,2.2514,2.2513,2.252,2.2524,2.2527,2.2536,2.2529,2.2532,2.2526,2.2544,2.2526,2.2529,2.2525,2.2524,2.2525,2.2547,2.2548,2.2548,2.2549,0,2.2546,2.2542,2.2547,2.255,2.2554,2.2555,2.2556,2.256,2.2548,2.2553,2.2558,2.256,2.2565,2.2569,2.2571,2.2568,2.2557,2.2555,2.2558,2.2561,2.2564,2.2562,2.2507,2.2553,2.2553,2.2553,2.2552,2.2552,2.2576,2.2584,2.2583,2.2588,2.2588,2.259,2.2596,2.2592,2.2596,2.26,2.2593,2.26,2.2599,2.26,2.2599,2.2605,2.2596,2.2601,2.2602,2.2604,2.2606,2.2565,2.2605,2.2605,2.2605,2.2605,2.2605,0,2.2615,2.2614,2.2619,2.2622,2.2626,2.2617,2.2618,2.2622,2.2629,2.2629,2.2632,2.2639,2.2644,2.2638,2.2642,2.2648,2.2642,2.2649,2.2648,2.2647,2.2613,2.261,2.2653,2.2653,2.2653,2.2653,2.2653,2.2653,2.2636,2.2648,2.2645,2.2657,2.2656,2.2663,2.2665,2.2666,2.2666,2.2675,2.2679,2.2676,2.2674,2.2678,2.2682,2.268,2.2682,2.269,2.2686,2.2654,2.265,2.2645,2.2641,2.2691,2.2691,2.272,2.272,2.272]},{"header":{"parameterUnit":"m.s-1","parameterCategory":1,"la1":30.2991,"la2":30.254,"lo1":-89.0895,"lo2":-89.0444,"dx":0.0017,"dy":0.0017,"nx":28,"ny":28,"refTime":"2022-12-24T09:00:00:Z","depth":0,"parameterNumber":3,"parameterNumberName":"V-component_of_WINDS"},"data":[0,0,0,0,0,0,0,0,0,0,0,0,0,0,0,0,0,0,0,0,0,0,0,0,0,0,0,0,0,0,0,0,0,0,0,0,0,0,0,0,0,0,0,0,0,0,0,0,0,0,0,0,0,0,0,0,0,0,-7.1336,-7.1338,0,-7.1507,-7.1509,-7.1511,-7.1463,-7.1459,-7.1456,-7.1452,-7.1623,-7.1631,-7.1638,0,0,0,0,0,0,0,0,0,0,0,0,0,-7.0964,-7.0971,-7.1336,-7.1338,-7.134,-7.1507,-7.1509,-7.1511,-7.1463,-7.1459,-7.1455,-7.1451,-7.1621,-7.163,-7.1639,0,0,0,0,0,0,0,0,0,0,0,0,0,-7.1129,-7.0973,-7.1336,-7.1336,-7.1338,-7.1506,-7.1509,-7.1512,-7.1464,-7.1459,-7.1454,-7.1449,-7.1618,-7.1629,-7.164,-7.1817,0,0,-7.1676,-7.1681,0,0,0,0,0,0,0,0,-7.112,-7.1143,-7.1334,-7.1337,-7.1339,-7.1458,-7.144,-7.1614,-7.1465,-7.1416,-7.1452,-7.1446,-7.1572,-7.1587,-7.1631,-7.1825,-7.1832,-7.1677,-7.1684,-7.1689,-7.1692,0,0,0,0,0,0,0,-7.1109,-7.1135,-7.1403,-7.1337,-7.134,-7.1327,-7.1345,-7.1473,-7.1521,-7.142,-7.1417,-7.1438,-7.1572,-7.162,-7.1634,-7.1834,-7.1677,-7.1687,-7.1694,-7.1699,-7.2181,-7.2187,0,0,0,0,0,0,-7.1096,-7.1126,-7.1398,-7.1409,-7.1215,-7.1338,-7.1358,-7.1425,-7.152,-7.1529,-7.1442,-7.1435,-7.1602,-7.1621,-7.164,-7.1853,-7.1689,-7.17,-7.1707,-7.2175,-7.2182,-7.2189,0,0,0,0,0,0,-7.1088,-7.1121,-7.1391,-7.1267,-7.13,-7.135,-7.1426,-7.1431,-7.1478,-7.1537,-7.1544,-7.1482,-7.1599,-7.1624,-7.1773,-7.1858,-7.1705,-7.1716,-7.2168,-7.2177,-7.2186,-7.2279,0,0,0,0,0,0,-7.1078,-7.1118,-7.1187,-7.1269,-7.1307,-7.1523,-7.1431,-7.1438,-7.1499,-7.1491,-7.1576,-7.1585,-7.1597,-7.1756,-7.1785,-7.1871,-7.1725,-7.2161,-7.2172,-7.2183,-7.2269,-7.229,-7.2308,0,0,0,0,0,-7.1064,-7.1205,-7.119,-7.1223,-7.1394,-7.1528,-7.155,-7.1562,-7.1506,-7.1575,-7.1612,-7.1582,-7.1844,-7.1772,-7.1804,-7.1895,-7.2156,-7.2169,-7.2182,-7.226,-7.2286,-7.2308,0,0,0,0,0,0,-7.113,-7.1216,-7.12,-7.1372,-7.1443,-7.152,-7.1607,-7.1589,-7.1676,-7.1665,-7.1675,-7.1695,-7.1848,-7.1886,-7.1804,-7.207,-7.1991,-7.2012,-7.204,-7.2065,-7.2084,-7.2072,-7.1735,0,0,0,0,0,-7.1165,-7.1268,-7.1337,-7.1482,-7.1518,-7.1557,-7.1616,-7.1619,-7.1692,-7.1722,-7.177,-7.1842,-7.194,-7.2004,-7.2098,-7.2274,-7.2291,-7.2352,-7.2372,-7.2388,-7.2405,-7.25,-7.2528,-7.2232,-7.2231,-7.2231,0,0,-7.1237,-7.1297,-7.1361,-7.1497,-7.1552,-7.1658,-7.1582,-7.1697,-7.1775,-7.1739,-7.1884,-7.1922,-7.2002,-7.2165,-7.224,-7.2202,-7.2491,-7.2404,-7.2417,-7.2425,-7.2517,-7.2545,-7.2569,-7.224,-7.2239,-7.2237,0,0,-7.1423,-7.1479,-7.1606,-7.1663,-7.1749,-7.1774,-7.1804,-7.1884,-7.1908,-7.2054,-7.2029,-7.2121,-7.229,-7.2349,-7.24,-7.2609,-7.2584,-7.2639,-7.2741,-7.2834,-7.2858,-7.2878,-7.2953,-7.2979,-7.2655,-7.2656,-7.2656,0,-7.1502,-7.1661,-7.1673,-7.1791,-7.185,-7.1824,-7.1952,-7.2006,-7.2118,-7.2159,-7.2116,-7.2328,-7.238,-7.2557,-7.2608,-7.2651,-7.2685,-7.2629,-7.2854,-7.2875,-7.2894,-7.2965,-7.2993,-7.2662,-7.2661,-7.2661,-7.266,0,-7.1754,-7.1865,-7.1957,-7.2067,-7.2137,-7.2259,-7.2288,-7.2357,-7.2354,-7.2383,-7.2531,-7.2593,-7.2699,-7.2741,-7.2738,-7.2917,-7.2891,-7.2851,-7.2772,-7.2928,-7.2995,-7.3022,-7.2671,-7.2668,-7.2667,-7.2665,0,0,-7.1986,-7.2101,-7.2135,-7.2184,-7.2277,-7.2362,-7.2482,-7.2587,-7.2647,-7.2724,-7.2825,-7.2969,-7.2932,-7.2991,-7.2995,-7.3077,-7.3237,-7.3026,-7.3028,-7.3063,-7.3438,-7.3468,-7.3499,-7.3222,-7.3227,-7.3231,-7.3431,0,-7.218,-7.2393,-7.2407,-7.26,-7.2702,-7.2678,-7.2783,-7.285,-7.2881,-7.297,-7.3002,-7.3105,-7.3049,-7.3084,-7.3164,-7.3201,-7.3313,-7.3187,-7.3314,-7.3319,-7.3295,-7.3534,-7.3566,-7.3751,-7.3457,-7.3461,-7.3465,0,-7.2434,-7.2521,-7.2725,-7.2803,-7.2846,-7.2941,-7.3038,-7.3124,-7.32,-7.3216,-7.3282,-7.3275,-7.3397,-7.3314,-7.3482,-7.3396,-7.3449,-7.3475,-7.3482,-7.3494,-7.3401,-7.3552,-7.3811,-7.3839,-7.3506,-7.3502,-7.3499,0,-7.2583,-7.2751,-7.2894,-7.2937,-7.3032,-7.3099,-7.3141,-7.3212,-7.3274,-7.3359,-7.3399,-7.3496,-7.3549,-7.3624,-7.3642,-7.358,-7.381,-7.3728,-7.3826,-7.3825,-7.3875,-7.3871,-7.4146,-7.3909,-7.3909,-7.3908,-7.3908,0,-7.2798,-7.2923,-7.2962,-7.3051,-7.319,-7.3204,-7.3341,-7.3379,-7.3442,-7.3536,-7.3521,-7.3609,-7.3628,-7.372,-7.3735,-7.3872,-7.3896,-7.3911,-7.3914,-7.3913,-7.3911,-7.3947,-7.3935,-7.3916,-7.3914,-7.3913,-7.3911,0,-7.2987,-7.3019,-7.3174,-7.3251,-7.3274,-7.3373,-7.3439,-7.3523,-7.3551,-7.367,-7.3699,-7.3743,-7.385,-7.3876,-7.4004,-7.4014,-7.4175,-7.4165,-7.415,-7.415,-7.4245,-7.4236,-7.4553,-7.4595,-7.4331,-7.4333,-7.4335,0,-7.3123,-7.3219,-7.3307,-7.337,-7.3416,-7.3517,-7.358,-7.3598,-7.3664,-7.3758,-7.3831,-7.3937,-7.4022,-7.4195,-7.4237,-7.4334,-7.4326,-7.4431,-7.4341,-7.4337,-7.4328,-7.4322,-7.4331,-7.4448,-7.445,-7.4453,-7.4455,0,-7.3359,-7.337,-7.3463,-7.3563,-7.3639,-7.3718,-7.3793,-7.3844,-7.3872,-7.3947,-7.4058,-7.4125,-7.4255,-7.436,-7.4459,-7.45,-7.4482,-7.4483,-7.451,-7.451,-7.4498,-7.4506,-7.4197,-7.4475,-7.4473,-7.4472,-7.447,-7.447,-7.3525,-7.361,-7.3685,-7.379,-7.3848,-7.3919,-7.4002,-7.4041,-7.4134,-7.4243,-7.4246,-7.4367,-7.4439,-7.4569,-7.4617,-7.471,-7.4678,-7.4718,-7.4728,-7.4738,-7.4746,-7.4483,-7.4728,-7.4727,-7.4727,-7.4726,-7.4726,0,-7.3761,-7.3808,-7.3904,-7.401,-7.4092,-7.407,-7.4151,-7.4221,-7.4327,-7.4397,-7.4482,-7.4609,-7.4711,-7.4761,-7.4862,-7.4927,-7.4921,-7.4953,-7.4948,-7.4958,-7.4769,-7.4735,-7.4956,-7.4956,-7.4956,-7.4956,-7.4956,-7.4955,-7.3893,-7.4035,-7.4054,-7.4224,-7.427,-7.4389,-7.4438,-7.4502,-7.4558,-7.4701,-7.4786,-7.4819,-7.4881,-7.4986,-7.5078,-7.509,-7.5128,-7.5164,-7.5172,-7.4994,-7.4971,-7.4949,-7.4917,-7.5172,-7.5172,-7.5352,-7.5354,-7.5355]}]]